ANDOYA/ANDENES(AFB) current weather conditions

sailwx.info

Wind from 190 at 14 knots

Air temperature 2.0° C
Visibility: greater than 5.4 NM
Dewpoint -0.0° C
Present weather: Showers in the vicinity.

Last reported at 2017-Mar-25 10:20 UTC.
Time now 2017-Mar-25 11:47 UTC

Location: N 69°18' E 016°09'.
View on Google Maps.

See reports from other nearby stations

  
Tides and Currents Weather Stations Pressure Air Temp Water Temp Dewpoint Dewpoint Depression Visibility Wind Speed Wind Dir Waves Ship Positions
date/time (UTC)wind fromknots sea level pressurealtimeterstation pressurevisibilityair tempwater tempwave heightnotes
2017-Mar-25 10:20 190 14 5.4 2.0 Showers in the vicinity.
2017-Mar-25 09:50 190 14 5.4 2.0 Showers in the vicinity.
2017-Mar-25 09:20 200 15 4.3 2.0 Light rain.
2017-Mar-25 08:50 190 14 5.4 2.0 Light drizzle.
2017-Mar-25 08:20 190 15 5.4 2.0 Showers in the vicinity.
2017-Mar-25 07:50 200 13 5.4 2.0 Light rain.
2017-Mar-25 07:20 200 14 5.4 2.0 Light rain.
2017-Mar-25 06:50 190 18 5.4 1.0
2017-Mar-25 06:20 180 12 5.4 1.0 Light drizzle.
2017-Mar-25 05:50 210 13 5.4 1.0
2017-Mar-25 05:20 220 15 5.4 2.0 Drizzle.
2017-Mar-25 04:50 210 12 5.4 2.0 Light drizzle.
2017-Mar-25 04:20 220 11 5.4 2.0
2017-Mar-25 03:50 210 11 5.4 2.0 Precipitation.
2017-Mar-25 03:20 190 9 5.4-0.0
2017-Mar-25 02:50 190 13 5.4-0.0
2017-Mar-25 02:20 180 13 5.4 1.0
2017-Mar-25 01:50 180 13 5.4 1.0
2017-Mar-25 01:20 180 11 5.4 1.0 Precipitation.
2017-Mar-25 00:50 200 13 5.4 1.0
2017-Mar-25 00:20 180 11 5.4 2.0
2017-Mar-24 23:50 210 11 5.4 2.0 Light rain.
2017-Mar-24 23:20 180 14 5.4 2.0
2017-Mar-24 22:50 190 13 5.4 2.0 Light drizzle.
2017-Mar-24 22:20 200 17 5.4 2.0 Light drizzle.
2017-Mar-24 21:50 190 13 5.4 2.0
2017-Mar-24 21:20 180 11 5.4 2.0
2017-Mar-24 20:50 200 14 5.4 1.0
2017-Mar-24 20:20 190 14 5.4 1.0
2017-Mar-24 19:50 200 15 5.4 1.0
2017-Mar-24 19:20 190 18 5.4 1.0
2017-Mar-24 18:50 190 18 5.4 2.0
2017-Mar-24 18:20 190 19 5.4 2.0
2017-Mar-24 17:50 190 19 5.4 2.0
2017-Mar-24 17:20 190 20 5.4 2.0
2017-Mar-24 16:50 180 21 5.4 2.0 Showers in the vicinity.
2017-Mar-24 16:20 180 21 5.4 1.0 Showers in the vicinity.
2017-Mar-24 15:50 180 21 3.8 1.0 Light snow.
2017-Mar-24 15:20 180 22 1.3 1.0 Light snow.
2017-Mar-24 14:50 180 24 5.4 2.0 Showers in the vicinity.
2017-Mar-24 14:20 170 21 5.4 2.0 Showers in the vicinity.
2017-Mar-24 13:50 170 20 5.4 2.0
2017-Mar-24 13:20 180 20 5.4 2.0
2017-Mar-24 12:50 180 21 5.4 2.0
2017-Mar-24 12:20 180 20 5.4 2.0
2017-Mar-24 11:50 190 20 5.4 2.0
2017-Mar-24 11:20 180 20 5.4 2.0
2017-Mar-24 10:50 190 14 5.4 1.0
2017-Mar-24 10:20 180 14 5.4 1.0
2017-Mar-24 09:50 180 14 5.4 1.0
2017-Mar-24 09:20 190 17 5.4 1.0
2017-Mar-24 08:50 190 18 5.4 1.0
2017-Mar-24 08:20 190 17 5.4 1.0
2017-Mar-24 07:50 190 12 5.4-0.0
2017-Mar-24 07:20 220 12 5.4-1.0
2017-Mar-24 06:50 210 12 5.4-0.0
2017-Mar-24 06:20 200 12 5.4-0.0
2017-Mar-24 05:50 210 11 5.4-1.0
2017-Mar-24 05:20 190 13 5.4-1.0
2017-Mar-24 04:50 190 12 4.3-1.0 Light snow showers.
2017-Mar-24 04:20 180 12 5.4-1.0
2017-Mar-24 03:50 180 9 5.4-1.0 Light freezing drizzle.
2017-Mar-24 03:20 180 9 5.4-1.0 Light freezing rain.
2017-Mar-24 02:50 210 12 2.7-0.0 Light snow.
2017-Mar-24 02:20 220 6 5.4-0.0 Light rain.
2017-Mar-24 01:50 250 9 5.4-0.0
2017-Mar-24 01:20 260 9 5.4-0.0
2017-Mar-24 00:50 290 13 5.4 1.0
2017-Mar-24 00:20 270 13 5.4-0.0
2017-Mar-23 23:50 280 13 5.4-0.0
2017-Mar-23 23:20 290 17 5.4-0.0
2017-Mar-23 22:50 290 15 5.4-0.0
2017-Mar-23 22:20 280 13 5.4-1.0 Light freezing rain.
2017-Mar-23 21:50 280 18 5.4-1.0
2017-Mar-23 21:20 300 20 5.4-0.0 Light freezing drizzle.
2017-Mar-23 20:50 300 21 3.2-1.0 Showers in the vicinity.
2017-Mar-23 20:20 280 22 2.2-1.0 Light freezing drizzle.
2017-Mar-23 19:50 290 22 3.2-1.0 Light freezing drizzle.
2017-Mar-23 19:20 270 11 1.0-2.0 Light snow showers.
2017-Mar-23 18:50 280 17 5.4-0.0 Showers in the vicinity.
2017-Mar-23 18:20 280 17 5.4-1.0 Light freezing drizzle.
2017-Mar-23 17:50 290 18 5.4-0.0 Showers in the vicinity.
2017-Mar-23 17:20 300 14 5.4-0.0 Showers in the vicinity.
2017-Mar-23 16:50 300 17 5.4-0.0 Showers in the vicinity.
2017-Mar-23 16:20 280 18 5.4-0.0 Showers in the vicinity.
2017-Mar-23 15:50 290 18 5.4-0.0 Showers in the vicinity.
2017-Mar-23 15:20 290 18 5.4-0.0 Showers in the vicinity.
2017-Mar-23 14:50 290 20 5.4-0.0 Showers in the vicinity.
2017-Mar-23 14:20 280 20 5.4-0.0
2017-Mar-23 13:50 290 24 5.4-0.0
2017-Mar-23 13:20 290 20 5.4-1.0
2017-Mar-23 12:50 290 24 5.4-0.0 Showers in the vicinity.
2017-Mar-23 12:20 280 20 5.4-0.0
2017-Mar-23 11:50 270 26 1.6-1.0 Light snow showers.
2017-Mar-23 11:20 300 21 5.4-0.0